Time,TemperatureF,DewpointF,PressureIn,WindDirection,WindDirectionDegrees,WindSpeedMPH,WindSpeedGustMPH,Humidity,HourlyPrecipIn,Conditions,Clouds,dailyrainin,SolarRadiationWatts/m^2,SoftwareType,DateUTC
2013-04-23 00:21:00,31.0,24.0,-100.00,ENE,70,0.0,2.0,75,-99.99,,,0.00,0.000000,,2013-04-23 08:21:00,
2013-04-23 01:21:00,31.0,25.0,-100.00,East,95,1.0,3.0,78,0.00,,,0.00,0.000000,,2013-04-23 09:21:00,
2013-04-23 01:42:00,31.0,25.0,-100.00,East,95,1.0,3.0,78,0.00,,,0.00,0.000000,,2013-04-23 09:42:00,
2013-04-23 01:52:00,31.0,25.0,-100.00,East,95,1.0,3.0,78,0.00,,,0.00,0.000000,,2013-04-23 09:52:00,
2013-04-23 02:22:00,31.0,26.0,-100.00,NE,49,0.0,2.0,80,0.00,,,0.00,0.000000,,2013-04-23 10:22:00,
2013-04-23 02:32:00,31.0,26.0,-100.00,NE,49,0.0,2.0,80,0.00,,,0.00,0.000000,,2013-04-23 10:32:00,
2013-04-23 02:42:00,31.0,26.0,-100.00,NE,49,0.0,2.0,80,0.00,,,0.00,0.000000,,2013-04-23 10:42:00,
2013-04-23 02:52:00,31.0,26.0,-100.00,NE,49,0.0,2.0,80,0.00,,,0.00,0.000000,,2013-04-23 10:52:00,
2013-04-23 03:12:00,32.0,26.0,-100.00,ESE,102,0.0,2.0,79,-99.99,,,-99.99,,,2013-04-23 11:12:00,
2013-04-23 03:21:00,32.0,26.0,-100.00,ESE,102,0.0,2.0,79,0.00,,,0.00,0.000000,,2013-04-23 11:21:00,
2013-04-23 03:32:00,32.0,26.0,-100.00,ESE,102,0.0,2.0,79,0.00,,,0.00,0.000000,,2013-04-23 11:32:00,
2013-04-23 03:42:00,32.0,26.0,-100.00,ESE,102,0.0,2.0,79,0.00,,,0.00,0.000000,,2013-04-23 11:42:00,
2013-04-23 03:52:00,32.0,26.0,-100.00,ESE,102,0.0,2.0,79,0.00,,,0.00,0.000000,,2013-04-23 11:52:00,
2013-04-23 04:22:00,32.0,27.0,-100.00,ENE,70,0.0,2.0,81,0.00,,,0.00,0.000000,,2013-04-23 12:22:00,
2013-04-23 04:32:00,32.0,27.0,-100.00,ENE,70,0.0,2.0,81,0.00,,,0.00,0.000000,,2013-04-23 12:32:00,
2013-04-23 04:41:00,32.0,27.0,-100.00,ENE,70,0.0,2.0,81,0.00,,,0.00,0.000000,,2013-04-23 12:41:00,
2013-04-23 04:51:00,32.0,27.0,-100.00,ENE,70,0.0,2.0,81,0.00,,,0.00,0.000000,,2013-04-23 12:51:00,
2013-04-23 05:21:00,32.0,27.0,-100.00,East,93,2.0,3.0,81,0.00,,,0.00,0.000000,,2013-04-23 13:21:00,
2013-04-23 05:32:00,32.0,27.0,-100.00,East,93,2.0,3.0,81,0.00,,,0.00,0.000000,,2013-04-23 13:32:00,
2013-04-23 05:41:00,32.0,27.0,-100.00,East,93,2.0,3.0,81,0.00,,,0.00,0.000000,,2013-04-23 13:41:00,
2013-04-23 05:52:00,32.0,27.0,-100.00,East,93,2.0,3.0,81,0.00,,,0.00,0.000000,,2013-04-23 13:52:00,
2013-04-23 06:22:00,33.0,27.0,-100.00,ENE,61,1.0,3.0,79,0.00,,,0.00,0.000000,,2013-04-23 14:22:00,
2013-04-23 06:32:00,33.0,27.0,-100.00,ENE,61,1.0,3.0,79,0.00,,,0.00,0.000000,,2013-04-23 14:32:00,
2013-04-23 06:42:00,33.0,27.0,-100.00,ENE,61,1.0,3.0,79,0.00,,,0.00,0.000000,,2013-04-23 14:42:00,
2013-04-23 06:52:00,33.0,27.0,-100.00,ENE,61,1.0,3.0,79,0.00,,,0.00,0.000000,,2013-04-23 14:52:00,
2013-04-23 07:21:00,33.0,27.0,-100.00,NE,42,1.0,3.0,79,0.00,,,0.00,2.000000,,2013-04-23 15:21:00,
2013-04-23 07:32:00,33.0,27.0,-100.00,NE,42,1.0,3.0,79,0.00,,,0.00,2.000000,,2013-04-23 15:32:00,
2013-04-23 07:42:00,33.0,27.0,-100.00,NE,42,1.0,3.0,79,0.00,,,0.00,2.000000,,2013-04-23 15:42:00,
2013-04-23 07:52:00,33.0,27.0,-100.00,NE,42,1.0,3.0,79,0.00,,,0.00,2.000000,,2013-04-23 15:52:00,
2013-04-23 08:23:00,34.0,29.0,-100.00,NNE,21,2.0,6.0,81,0.00,,,0.00,13.000000,,2013-04-23 16:23:00,
2013-04-23 08:33:00,34.0,29.0,-100.00,NNE,21,2.0,6.0,81,0.00,,,0.00,13.000000,,2013-04-23 16:33:00,
2013-04-23 08:42:00,34.0,29.0,-100.00,NNE,21,2.0,6.0,81,0.00,,,0.00,13.000000,,2013-04-23 16:42:00,
2013-04-23 08:52:00,34.0,29.0,-100.00,NNE,21,2.0,6.0,81,0.00,,,0.00,13.000000,,2013-04-23 16:52:00,
2013-04-23 09:22:00,33.0,30.0,-100.00,North,349,2.0,5.0,87,0.00,,,0.00,29.000000,,2013-04-23 17:22:00,
2013-04-23 09:32:00,33.0,30.0,-100.00,North,349,2.0,5.0,87,0.00,,,0.00,29.000000,,2013-04-23 17:32:00,
2013-04-23 09:42:00,33.0,30.0,-100.00,North,349,2.0,5.0,87,0.00,,,0.00,29.000000,,2013-04-23 17:42:00,
2013-04-23 09:53:00,33.0,30.0,-100.00,North,349,2.0,5.0,87,0.00,,,0.00,29.000000,,2013-04-23 17:53:00,
2013-04-23 10:22:00,34.0,31.0,-100.00,North,4,2.0,7.0,89,0.03,,,0.03,66.000000,,2013-04-23 18:22:00,
2013-04-23 10:32:00,34.0,31.0,-100.00,North,4,2.0,7.0,89,0.03,,,0.03,66.000000,,2013-04-23 18:32:00,
2013-04-23 10:42:00,34.0,31.0,-100.00,North,4,2.0,7.0,89,0.03,,,0.03,66.000000,,2013-04-23 18:42:00,
2013-04-23 10:52:00,34.0,31.0,-100.00,North,4,2.0,7.0,89,0.03,,,0.03,66.000000,,2013-04-23 18:52:00,
2013-04-23 11:21:00,35.0,32.0,-100.00,NNE,22,2.0,7.0,88,0.03,,,0.06,92.000000,,2013-04-23 19:21:00,
2013-04-23 11:32:00,35.0,32.0,-100.00,NNE,22,2.0,7.0,88,0.03,,,0.06,92.000000,,2013-04-23 19:32:00,
2013-04-23 11:42:00,35.0,32.0,-100.00,NNE,22,2.0,7.0,88,0.03,,,0.06,92.000000,,2013-04-23 19:42:00,
2013-04-23 11:51:00,35.0,32.0,-100.00,NNE,22,2.0,7.0,88,0.03,,,0.06,92.000000,,2013-04-23 19:51:00,
2013-04-23 12:21:00,35.0,31.0,-100.00,North,358,3.0,6.0,86,0.01,,,0.07,110.000000,,2013-04-23 20:21:00,
2013-04-23 12:31:00,35.0,31.0,-100.00,North,358,3.0,6.0,86,0.01,,,0.07,110.000000,,2013-04-23 20:31:00,
2013-04-23 12:42:00,35.0,31.0,-100.00,North,358,3.0,6.0,86,0.01,,,0.07,110.000000,,2013-04-23 20:42:00,
2013-04-23 12:51:00,35.0,31.0,-100.00,North,358,3.0,6.0,86,0.01,,,0.07,110.000000,,2013-04-23 20:51:00,
2013-04-23 13:21:00,37.0,34.0,-100.00,North,7,2.0,5.0,87,0.01,,,0.08,120.000000,,2013-04-23 21:21:00,
2013-04-23 13:32:00,37.0,34.0,-100.00,North,7,2.0,5.0,87,0.01,,,0.08,120.000000,,2013-04-23 21:32:00,
2013-04-23 13:43:00,37.0,34.0,-100.00,North,7,2.0,5.0,87,0.01,,,0.08,120.000000,,2013-04-23 21:43:00,
2013-04-23 13:52:00,37.0,34.0,-100.00,North,7,2.0,5.0,87,0.01,,,0.08,120.000000,,2013-04-23 21:52:00,
2013-04-23 14:22:00,38.0,34.0,-100.00,NNE,21,2.0,6.0,87,0.02,,,0.10,148.000000,,2013-04-23 22:22:00,
2013-04-23 14:33:00,38.0,34.0,-100.00,NNE,21,2.0,6.0,87,0.02,,,0.10,148.000000,,2013-04-23 22:33:00,
2013-04-23 14:42:00,38.0,34.0,-100.00,NNE,21,2.0,6.0,87,0.02,,,0.10,148.000000,,2013-04-23 22:42:00,
2013-04-23 14:52:00,38.0,34.0,-100.00,NNE,21,2.0,6.0,87,0.02,,,0.10,148.000000,,2013-04-23 22:52:00,
2013-04-23 15:22:00,38.0,35.0,-100.00,NW,324,2.0,5.0,88,0.00,,,0.10,105.000000,,2013-04-23 23:22:00,
2013-04-23 15:32:00,38.0,35.0,-100.00,NW,324,2.0,5.0,88,0.00,,,0.10,105.000000,,2013-04-23 23:32:00,
2013-04-23 15:42:00,38.0,35.0,-100.00,NW,324,2.0,5.0,88,0.00,,,0.10,105.000000,,2013-04-23 23:42:00,
2013-04-23 15:52:00,38.0,35.0,-100.00,NW,324,2.0,5.0,88,0.00,,,0.10,105.000000,,2013-04-23 23:52:00,
2013-04-23 16:21:00,40.0,37.0,-100.00,WNW,283,2.0,5.0,88,0.01,,,0.11,111.000000,,2013-04-24 00:21:00,
2013-04-23 16:32:00,40.0,37.0,-100.00,WNW,283,2.0,5.0,88,0.01,,,0.11,111.000000,,2013-04-24 00:32:00,
2013-04-23 16:41:00,40.0,37.0,-100.00,WNW,283,2.0,5.0,88,0.01,,,0.11,111.000000,,2013-04-24 00:41:00,
2013-04-23 16:51:00,40.0,37.0,-100.00,WNW,283,2.0,5.0,88,0.01,,,0.11,111.000000,,2013-04-24 00:51:00,
2013-04-23 17:21:00,41.0,38.0,-100.00,WNW,297,2.0,5.0,89,0.01,,,0.12,110.000000,,2013-04-24 01:21:00,
2013-04-23 17:32:00,41.0,38.0,-100.00,WNW,297,2.0,5.0,89,0.01,,,0.12,110.000000,,2013-04-24 01:32:00,
2013-04-23 17:42:00,41.0,38.0,-100.00,WNW,297,2.0,5.0,89,0.01,,,0.12,110.000000,,2013-04-24 01:42:00,
2013-04-23 17:52:00,41.0,38.0,-100.00,WNW,297,2.0,5.0,89,0.01,,,0.12,110.000000,,2013-04-24 01:52:00,
2013-04-23 18:36:00,41.0,37.0,-100.00,WNW,300,2.0,5.0,87,0.00,,,0.12,106.000000,,2013-04-24 02:36:00,
2013-04-23 18:45:00,41.0,37.0,-100.00,WNW,300,2.0,5.0,87,0.00,,,0.12,106.000000,,2013-04-24 02:45:00,
2013-04-23 18:52:00,41.0,37.0,-100.00,WNW,300,2.0,5.0,87,0.00,,,0.12,106.000000,,2013-04-24 02:52:00,
2013-04-23 19:26:00,42.0,39.0,-100.00,WSW,246,2.0,4.0,88,0.01,,,0.13,91.000000,,2013-04-24 03:26:00,
2013-04-23 19:46:00,42.0,39.0,-100.00,WSW,246,2.0,4.0,88,0.01,,,0.13,91.000000,,2013-04-24 03:46:00,
2013-04-23 19:53:00,42.0,39.0,-100.00,WSW,246,2.0,4.0,88,0.01,,,0.13,91.000000,,2013-04-24 03:53:00,
2013-04-23 20:22:00,42.0,39.0,-100.00,ESE,122,1.0,4.0,89,0.00,,,0.13,97.000000,,2013-04-24 04:22:00,
2013-04-23 20:33:00,42.0,39.0,-100.00,ESE,122,1.0,4.0,89,0.00,,,0.13,97.000000,,2013-04-24 04:33:00,
2013-04-23 20:43:00,42.0,39.0,-100.00,ESE,122,1.0,4.0,89,0.00,,,0.13,97.000000,,2013-04-24 04:43:00,
2013-04-23 20:52:00,42.0,39.0,-100.00,ESE,122,1.0,4.0,89,0.00,,,0.13,97.000000,,2013-04-24 04:52:00,
2013-04-23 21:21:00,40.0,38.0,-100.00,West,274,0.0,2.0,92,0.00,,,0.13,43.000000,,2013-04-24 05:21:00,
2013-04-23 21:32:00,40.0,38.0,-100.00,West,274,0.0,2.0,92,0.00,,,0.13,43.000000,,2013-04-24 05:32:00,
2013-04-23 21:42:00,40.0,38.0,-100.00,West,274,0.0,2.0,92,0.00,,,0.13,43.000000,,2013-04-24 05:42:00,
2013-04-23 21:51:00,40.0,38.0,-100.00,West,274,0.0,2.0,92,0.00,,,0.13,43.000000,,2013-04-24 05:51:00,
2013-04-23 22:21:00,36.0,35.0,-100.00,SSW,198,0.0,0.0,95,0.00,,,0.13,6.000000,,2013-04-24 06:21:00,
2013-04-23 22:32:00,36.0,35.0,-100.00,SSW,198,0.0,0.0,95,0.00,,,0.13,6.000000,,2013-04-24 06:32:00,
2013-04-23 22:42:00,36.0,35.0,-100.00,SSW,198,0.0,0.0,95,0.00,,,0.13,6.000000,,2013-04-24 06:42:00,
2013-04-23 22:51:00,36.0,35.0,-100.00,SSW,198,0.0,0.0,95,0.00,,,0.13,6.000000,,2013-04-24 06:51:00,
2013-04-23 23:22:00,35.0,34.0,-100.00,East,93,0.0,2.0,97,0.01,,,0.14,0.000000,,2013-04-24 07:22:00,
2013-04-23 23:32:00,35.0,34.0,-100.00,East,93,0.0,2.0,97,0.01,,,0.14,0.000000,,2013-04-24 07:32:00,
2013-04-23 23:41:00,35.0,34.0,-100.00,East,93,0.0,2.0,97,0.01,,,0.14,0.000000,,2013-04-24 07:41:00,
2013-04-23 23:52:00,35.0,34.0,-100.00,East,93,0.0,2.0,97,0.01,,,0.14,0.000000,,2013-04-24 07:52:00,